contact:dominique.lefevre@mio.osupytheas.fr, maurice.libes@osupytheas.fr, didier.mallarino@osupytheas.fr
Project:EMSO http://www.emso-fr.org/EMSO-France
Depth: 2436.0 m
Title:EMSO Ligure Ouest : Data MII capteur CSTAR
DateTime,Latitude,Longitude,Instrument_Serial,Reference_Counts,Signal_Counts,Corrected_Signal_raw_counts,Calculated_Beam_c_inverse_meters,Internal_thermistor_counts
DateTime,Latitude,Longitude,Instrument_Serial,Reference_Counts,Signal_Counts,Corrected_Signal_raw_counts,Calculated_Beam_c_inverse_meters,Internal_thermistor_counts
2023-03-09T00:02:41,42.805,6.029,CST-1368DR,4359,4736,11541,01.210,551
2023-03-09T00:05:42,42.805,6.029,CST-1368DR,4359,4737,11543,01.209,551
2023-03-09T00:08:44,42.805,6.029,CST-1368DR,4359,4737,11544,01.209,551
2023-03-09T00:11:45,42.805,6.029,CST-1368DR,4359,4736,11541,01.210,551
2023-03-09T00:14:47,42.805,6.029,CST-1368DR,4359,4736,11540,01.210,551
2023-03-09T00:17:49,42.805,6.029,CST-1368DR,4359,4737,11543,01.209,551
2023-03-09T00:20:50,42.805,6.029,CST-1368DR,4359,4740,11552,01.206,551
2023-03-09T00:23:52,42.805,6.029,CST-1368DR,4359,4734,11535,01.212,551
2023-03-09T00:26:53,42.805,6.029,CST-1368DR,4359,4736,11541,01.210,551
2023-03-09T00:29:55,42.805,6.029,CST-1368DR,4359,4733,11534,01.212,551
2023-03-09T00:32:57,42.805,6.029,CST-1368DR,4359,4734,11535,01.212,551
2023-03-09T00:35:58,42.805,6.029,CST-1368DR,4359,4736,11541,01.210,551
2023-03-09T00:39:00,42.805,6.029,CST-1368DR,4359,4735,11538,01.211,551
2023-03-09T00:42:01,42.805,6.029,CST-1368DR,4359,4735,11538,01.211,551
2023-03-09T00:45:03,42.805,6.029,CST-1368DR,4359,4735,11540,01.210,551
2023-03-09T00:48:04,42.805,6.029,CST-1368DR,4359,4735,11539,01.210,551
2023-03-09T00:51:06,42.805,6.029,CST-1368DR,4359,4734,11537,01.211,551
2023-03-09T00:54:08,42.805,6.029,CST-1368DR,4359,4735,11538,01.211,551
2023-03-09T00:57:09,42.805,6.029,CST-1368DR,4359,4735,11540,01.210,551
2023-03-09T01:00:11,42.805,6.029,CST-1368DR,4359,4735,11540,01.210,551
2023-03-09T01:03:12,42.805,6.029,CST-1368DR,4359,4735,11539,01.210,551
2023-03-09T01:06:14,42.805,6.029,CST-1368DR,4359,4737,11543,01.209,551
2023-03-09T01:09:15,42.805,6.029,CST-1368DR,4359,4736,11541,01.210,551
2023-03-09T01:12:17,42.805,6.029,CST-1368DR,4359,4734,11536,01.211,551
2023-03-09T01:15:19,42.805,6.029,CST-1368DR,4359,4736,11541,01.210,551
2023-03-09T01:18:20,42.805,6.029,CST-1368DR,4359,4741,11553,01.205,551
2023-03-09T01:21:22,42.805,6.029,CST-1368DR,4359,4737,11543,01.209,551
2023-03-09T01:24:23,42.805,6.029,CST-1368DR,4359,4737,11545,01.208,551
2023-03-09T01:27:25,42.805,6.029,CST-1368DR,4359,4737,11544,01.209,551
2023-03-09T01:30:27,42.805,6.029,CST-1368DR,4359,4736,11541,01.210,551
2023-03-09T01:33:28,42.805,6.029,CST-1368DR,4359,4737,11544,01.209,551
2023-03-09T01:36:30,42.805,6.029,CST-1368DR,4359,4739,11548,01.207,551
2023-03-09T01:39:31,42.805,6.029,CST-1368DR,4359,4739,11549,01.207,551
2023-03-09T01:42:33,42.805,6.029,CST-1368DR,4359,4739,11549,01.207,551
2023-03-09T01:45:34,42.805,6.029,CST-1368DR,4359,4739,11548,01.207,551
2023-03-09T01:48:36,42.805,6.029,CST-1368DR,4359,4737,11544,01.209,551
2023-03-09T01:51:38,42.805,6.029,CST-1368DR,4359,4737,11543,01.209,551
2023-03-09T01:54:39,42.805,6.029,CST-1368DR,4359,4740,11551,01.206,551
2023-03-09T01:57:41,42.805,6.029,CST-1368DR,4359,4740,11551,01.206,551
2023-03-09T02:00:42,42.805,6.029,CST-1368DR,4359,4740,11550,01.206,551
2023-03-09T02:03:44,42.805,6.029,CST-1368DR,4359,4737,11544,01.209,551
2023-03-09T02:06:45,42.805,6.029,CST-1368DR,4359,4739,11549,01.207,551
2023-03-09T02:09:47,42.805,6.029,CST-1368DR,4359,4738,11547,01.207,551
2023-03-09T02:12:49,42.805,6.029,CST-1368DR,4359,4738,11547,01.207,551
2023-03-09T02:15:50,42.805,6.029,CST-1368DR,4359,4737,11545,01.208,551
2023-03-09T02:18:52,42.805,6.029,CST-1368DR,4359,4734,11536,01.211,551
2023-03-09T02:21:53,42.805,6.029,CST-1368DR,4359,4739,11548,01.207,551
2023-03-09T02:24:55,42.805,6.029,CST-1368DR,4359,4742,11557,01.204,551
2023-03-09T02:27:57,42.805,6.029,CST-1368DR,4359,4742,11557,01.204,551
2023-03-09T02:30:58,42.805,6.029,CST-1368DR,4359,4741,11552,01.206,551
2023-03-09T02:34:00,42.805,6.029,CST-1368DR,4359,4741,11554,01.205,551
2023-03-09T02:37:01,42.805,6.029,CST-1368DR,4359,4740,11551,01.206,551
2023-03-09T02:40:03,42.805,6.029,CST-1368DR,4359,4741,11553,01.205,551
2023-03-09T02:43:04,42.805,6.029,CST-1368DR,4359,4742,11556,01.204,551
2023-03-09T02:46:06,42.805,6.029,CST-1368DR,4359,4743,11558,01.204,551
2023-03-09T02:49:08,42.805,6.029,CST-1368DR,4359,4744,11561,01.203,551
2023-03-09T02:52:09,42.805,6.029,CST-1368DR,4359,4739,11549,01.207,551
2023-03-09T02:55:11,42.805,6.029,CST-1368DR,4359,4738,11546,01.208,551
2023-03-09T02:58:12,42.805,6.029,CST-1368DR,4359,4739,11549,01.207,551
2023-03-09T03:01:14,42.805,6.029,CST-1368DR,4359,4739,11549,01.207,551
2023-03-09T03:04:15,42.805,6.029,CST-1368DR,4359,4740,11551,01.206,551
2023-03-09T03:07:17,42.805,6.029,CST-1368DR,4359,4736,11540,01.210,551
2023-03-09T03:10:19,42.805,6.029,CST-1368DR,4359,4739,11548,01.207,551
2023-03-09T03:13:20,42.805,6.029,CST-1368DR,4359,4740,11550,01.206,551
2023-03-09T03:16:22,42.805,6.029,CST-1368DR,4359,4739,11549,01.207,551
2023-03-09T03:19:23,42.805,6.029,CST-1368DR,4359,4739,11548,01.207,551
2023-03-09T03:22:25,42.805,6.029,CST-1368DR,4359,4737,11544,01.209,551
2023-03-09T03:25:27,42.805,6.029,CST-1368DR,4359,4739,11548,01.207,551
2023-03-09T03:28:28,42.805,6.029,CST-1368DR,4359,4738,11546,01.208,551
2023-03-09T03:31:30,42.805,6.029,CST-1368DR,4359,4737,11543,01.209,551
2023-03-09T03:34:31,42.805,6.029,CST-1368DR,4359,4733,11533,01.212,551
2023-03-09T03:37:33,42.805,6.029,CST-1368DR,4359,4737,11543,01.209,551
2023-03-09T03:40:34,42.805,6.029,CST-1368DR,4359,4736,11542,01.209,551
2023-03-09T03:43:36,42.805,6.029,CST-1368DR,4359,4737,11543,01.209,551
2023-03-09T03:46:38,42.805,6.029,CST-1368DR,4359,4736,11541,01.210,551
2023-03-09T03:49:39,42.805,6.029,CST-1368DR,4359,4737,11545,01.208,551
2023-03-09T03:52:41,42.805,6.029,CST-1368DR,4359,4739,11548,01.207,551
2023-03-09T03:55:42,42.805,6.029,CST-1368DR,4359,4727,11520,01.217,551
2023-03-09T03:58:44,42.805,6.029,CST-1368DR,4359,4738,11547,01.207,551
2023-03-09T04:01:45,42.805,6.029,CST-1368DR,4359,4737,11545,01.208,551
2023-03-09T04:04:47,42.805,6.029,CST-1368DR,4359,4739,11549,01.207,551
2023-03-09T04:07:49,42.805,6.029,CST-1368DR,4359,4738,11545,01.208,551
2023-03-09T04:10:50,42.805,6.029,CST-1368DR,4359,4738,11547,01.207,551
2023-03-09T04:13:52,42.805,6.029,CST-1368DR,4359,4740,11550,01.206,551
2023-03-09T04:16:53,42.805,6.029,CST-1368DR,4359,4740,11551,01.206,551
2023-03-09T04:19:55,42.805,6.029,CST-1368DR,4359,4735,11540,01.210,551
2023-03-09T04:22:57,42.805,6.029,CST-1368DR,4359,4739,11549,01.207,551
2023-03-09T04:25:58,42.805,6.029,CST-1368DR,4359,4740,11552,01.206,551
2023-03-09T04:29:00,42.805,6.029,CST-1368DR,4359,4740,11551,01.206,551
2023-03-09T04:32:01,42.805,6.029,CST-1368DR,4359,4740,11551,01.206,551
2023-03-09T04:35:03,42.805,6.029,CST-1368DR,4359,4740,11552,01.206,551
2023-03-09T04:38:04,42.805,6.029,CST-1368DR,4359,4746,11566,01.201,551
2023-03-09T04:41:06,42.805,6.029,CST-1368DR,4359,4740,11550,01.206,551
2023-03-09T04:44:08,42.805,6.029,CST-1368DR,4359,4740,11551,01.206,551
2023-03-09T04:47:09,42.805,6.029,CST-1368DR,4359,4739,11549,01.207,551
2023-03-09T04:50:11,42.805,6.029,CST-1368DR,4359,4739,11548,01.207,551
2023-03-09T04:53:12,42.805,6.029,CST-1368DR,4359,4740,11551,01.206,551
2023-03-09T04:56:14,42.805,6.029,CST-1368DR,4359,4737,11544,01.209,551
2023-03-09T04:59:15,42.805,6.029,CST-1368DR,4359,4740,11550,01.206,551
2023-03-09T05:02:17,42.805,6.029,CST-1368DR,4359,4740,11551,01.206,551
2023-03-09T05:05:19,42.805,6.029,CST-1368DR,4359,4740,11551,01.206,551
2023-03-09T05:08:20,42.805,6.029,CST-1368DR,4359,4738,11547,01.207,551
2023-03-09T05:11:22,42.805,6.029,CST-1368DR,4359,4741,11554,01.205,551
2023-03-09T05:14:23,42.805,6.029,CST-1368DR,4359,4740,11552,01.206,551
2023-03-09T05:17:25,42.805,6.029,CST-1368DR,4359,4741,11553,01.205,551
2023-03-09T05:20:27,42.805,6.029,CST-1368DR,4359,4740,11550,01.206,551
2023-03-09T05:23:28,42.805,6.029,CST-1368DR,4359,4740,11551,01.206,551
2023-03-09T05:26:30,42.805,6.029,CST-1368DR,4359,4741,11553,01.205,551
2023-03-09T05:29:31,42.805,6.029,CST-1368DR,4359,4740,11551,01.206,551
2023-03-09T05:32:33,42.805,6.029,CST-1368DR,4359,4741,11554,01.205,551
2023-03-09T05:35:34,42.805,6.029,CST-1368DR,4359,4739,11548,01.207,551
2023-03-09T05:38:36,42.805,6.029,CST-1368DR,4359,4733,11534,01.212,551
2023-03-09T05:41:38,42.805,6.029,CST-1368DR,4359,4740,11551,01.206,551
2023-03-09T05:44:39,42.805,6.029,CST-1368DR,4359,4739,11548,01.207,551
2023-03-09T05:47:41,42.805,6.029,CST-1368DR,4359,4740,11551,01.206,551
2023-03-09T05:50:42,42.805,6.029,CST-1368DR,4359,4738,11546,01.208,551
2023-03-09T05:53:44,42.805,6.029,CST-1368DR,4359,4733,11533,01.212,551
2023-03-09T05:56:45,42.805,6.029,CST-1368DR,4359,4739,11548,01.207,551
2023-03-09T05:59:47,42.805,6.029,CST-1368DR,4359,4740,11552,01.206,551
2023-03-09T06:02:49,42.805,6.029,CST-1368DR,4359,4739,11549,01.207,551
2023-03-09T06:05:50,42.805,6.029,CST-1368DR,4359,4740,11550,01.206,551
2023-03-09T06:08:52,42.805,6.029,CST-1368DR,4359,4741,11554,01.205,551
2023-03-09T06:11:53,42.805,6.029,CST-1368DR,4359,4741,11554,01.205,551
2023-03-09T06:14:55,42.805,6.029,CST-1368DR,4359,4741,11553,01.205,551
2023-03-09T06:17:57,42.805,6.029,CST-1368DR,4359,4739,11549,01.207,551
2023-03-09T06:20:58,42.805,6.029,CST-1368DR,4359,4741,11554,01.205,551
2023-03-09T06:24:00,42.805,6.029,CST-1368DR,4359,4740,11552,01.206,551
2023-03-09T06:27:01,42.805,6.029,CST-1368DR,4359,4739,11549,01.207,551
2023-03-09T06:30:03,42.805,6.029,CST-1368DR,4359,4743,11559,01.203,551
2023-03-09T06:33:04,42.805,6.029,CST-1368DR,4359,4740,11552,01.206,551
2023-03-09T06:36:06,42.805,6.029,CST-1368DR,4359,4740,11552,01.206,551
2023-03-09T06:39:08,42.805,6.029,CST-1368DR,4359,4734,11537,01.211,551
2023-03-09T06:42:09,42.805,6.029,CST-1368DR,4359,4740,11550,01.206,551
2023-03-09T06:45:11,42.805,6.029,CST-1368DR,4359,4743,11557,01.204,551
2023-03-09T06:48:12,42.805,6.029,CST-1368DR,4359,4742,11555,01.205,551
2023-03-09T06:51:14,42.805,6.029,CST-1368DR,4359,4740,11551,01.206,551
2023-03-09T06:54:15,42.805,6.029,CST-1368DR,4359,4740,11550,01.206,551
2023-03-09T06:57:17,42.805,6.029,CST-1368DR,4359,4739,11548,01.207,551
2023-03-09T07:00:19,42.805,6.029,CST-1368DR,4359,4740,11552,01.206,551
2023-03-09T07:03:20,42.805,6.029,CST-1368DR,4359,4741,11554,01.205,551
2023-03-09T07:06:22,42.805,6.029,CST-1368DR,4359,4741,11553,01.205,551
2023-03-09T07:09:23,42.805,6.029,CST-1368DR,4359,4740,11551,01.206,551
2023-03-09T07:12:25,42.805,6.029,CST-1368DR,4359,4732,11532,01.213,551
2023-03-09T07:15:27,42.805,6.029,CST-1368DR,4359,4738,11546,01.208,551
2023-03-09T07:18:28,42.805,6.029,CST-1368DR,4359,4738,11546,01.208,551
2023-03-09T07:21:30,42.805,6.029,CST-1368DR,4359,4740,11550,01.206,551
2023-03-09T07:24:31,42.805,6.029,CST-1368DR,4359,4736,11542,01.209,551
2023-03-09T07:27:33,42.805,6.029,CST-1368DR,4359,4740,11552,01.206,551
2023-03-09T07:30:34,42.805,6.029,CST-1368DR,4359,4739,11548,01.207,551
2023-03-09T07:33:36,42.805,6.029,CST-1368DR,4359,4736,11541,01.210,551
2023-03-09T07:36:38,42.805,6.029,CST-1368DR,4359,4739,11548,01.207,551
2023-03-09T07:39:39,42.805,6.029,CST-1368DR,4359,4740,11552,01.206,551
2023-03-09T07:42:41,42.805,6.029,CST-1368DR,4359,4741,11552,01.206,551
2023-03-09T07:45:42,42.805,6.029,CST-1368DR,4359,4742,11555,01.205,551
2023-03-09T07:48:44,42.805,6.029,CST-1368DR,4359,4739,11549,01.207,551
2023-03-09T07:51:45,42.805,6.029,CST-1368DR,4359,4743,11557,01.204,551
2023-03-09T07:54:47,42.805,6.029,CST-1368DR,4359,4740,11551,01.206,551
2023-03-09T07:57:49,42.805,6.029,CST-1368DR,4359,4741,11554,01.205,551
2023-03-09T08:00:50,42.805,6.029,CST-1368DR,4359,4742,11556,01.204,551
2023-03-09T08:03:52,42.805,6.029,CST-1368DR,4359,4743,11557,01.204,551
2023-03-09T08:06:53,42.805,6.029,CST-1368DR,4359,4743,11559,01.203,551
2023-03-09T08:09:55,42.805,6.029,CST-1368DR,4359,4744,11561,01.203,551
2023-03-09T08:12:56,42.805,6.029,CST-1368DR,4359,4744,11562,01.202,551
2023-03-09T08:15:58,42.805,6.029,CST-1368DR,4359,4743,11559,01.203,551
2023-03-09T08:19:00,42.805,6.029,CST-1368DR,4359,4746,11566,01.201,551
2023-03-09T08:22:01,42.805,6.029,CST-1368DR,4359,4743,11559,01.203,551
2023-03-09T08:25:03,42.805,6.029,CST-1368DR,4359,4743,11558,01.204,551
2023-03-09T08:28:04,42.805,6.029,CST-1368DR,4359,4742,11556,01.204,551
2023-03-09T08:31:06,42.805,6.029,CST-1368DR,4359,4742,11556,01.204,551
2023-03-09T08:34:08,42.805,6.029,CST-1368DR,4359,4744,11560,01.203,551
2023-03-09T08:37:09,42.805,6.029,CST-1368DR,4359,4744,11562,01.202,551
2023-03-09T08:40:11,42.805,6.029,CST-1368DR,4359,4740,11552,01.206,551
2023-03-09T08:43:12,42.805,6.029,CST-1368DR,4359,4744,11562,01.202,551
2023-03-09T08:46:14,42.805,6.029,CST-1368DR,4359,4747,11568,01.200,551
2023-03-09T08:49:15,42.805,6.029,CST-1368DR,4359,4744,11560,01.203,551
2023-03-09T08:52:17,42.805,6.029,CST-1368DR,4359,4744,11560,01.203,551
2023-03-09T08:55:19,42.805,6.029,CST-1368DR,4359,4744,11562,01.202,551
2023-03-09T08:58:20,42.805,6.029,CST-1368DR,4359,4744,11561,01.203,551
2023-03-09T09:01:22,42.805,6.029,CST-1368DR,4359,4744,11560,01.203,551
2023-03-09T09:04:23,42.805,6.029,CST-1368DR,4359,4744,11560,01.203,551
2023-03-09T09:07:25,42.805,6.029,CST-1368DR,4359,4744,11560,01.203,551
2023-03-09T09:10:26,42.805,6.029,CST-1368DR,4359,4744,11560,01.203,551
2023-03-09T09:13:28,42.805,6.029,CST-1368DR,4359,4736,11540,01.210,551
2023-03-09T09:16:30,42.805,6.029,CST-1368DR,4359,4743,11559,01.203,551
2023-03-09T09:19:31,42.805,6.029,CST-1368DR,4359,4743,11558,01.204,551
2023-03-09T09:22:33,42.805,6.029,CST-1368DR,4359,4742,11557,01.204,551
2023-03-09T09:25:34,42.805,6.029,CST-1368DR,4359,4739,11549,01.207,551
2023-03-09T09:28:36,42.805,6.029,CST-1368DR,4359,4740,11552,01.206,551
2023-03-09T09:31:38,42.805,6.029,CST-1368DR,4359,4743,11557,01.204,551
2023-03-09T09:34:39,42.805,6.029,CST-1368DR,4359,4743,11559,01.203,551
2023-03-09T09:37:41,42.805,6.029,CST-1368DR,4359,4741,11554,01.205,551
2023-03-09T09:40:42,42.805,6.029,CST-1368DR,4359,4742,11555,01.205,551
2023-03-09T09:43:44,42.805,6.029,CST-1368DR,4359,4742,11556,01.204,551
2023-03-09T09:46:45,42.805,6.029,CST-1368DR,4359,4732,11532,01.213,551
2023-03-09T09:49:47,42.805,6.029,CST-1368DR,4359,4737,11543,01.209,551
2023-03-09T09:52:49,42.805,6.029,CST-1368DR,4359,4737,11544,01.209,551
2023-03-09T09:55:50,42.805,6.029,CST-1368DR,4359,4740,11551,01.206,551
2023-03-09T09:58:52,42.805,6.029,CST-1368DR,4359,4736,11540,01.210,551
2023-03-09T10:01:53,42.805,6.029,CST-1368DR,4359,4747,11568,01.200,551
2023-03-09T10:04:55,42.805,6.029,CST-1368DR,4359,4749,11573,01.198,551
2023-03-09T10:07:56,42.805,6.029,CST-1368DR,4359,4746,11565,01.201,551
2023-03-09T10:10:58,42.805,6.029,CST-1368DR,4359,4747,11567,01.201,551
2023-03-09T10:14:00,42.805,6.029,CST-1368DR,4359,4742,11555,01.205,551
2023-03-09T10:17:01,42.805,6.029,CST-1368DR,4359,4752,11579,01.196,551
2023-03-09T10:20:03,42.805,6.029,CST-1368DR,4359,4751,11578,01.197,551
2023-03-09T10:23:04,42.805,6.029,CST-1368DR,4359,4747,11569,01.200,551
2023-03-09T10:26:06,42.805,6.029,CST-1368DR,4359,4745,11563,01.202,551
2023-03-09T10:29:07,42.805,6.029,CST-1368DR,4359,4746,11565,01.201,551
2023-03-09T10:32:09,42.805,6.029,CST-1368DR,4359,4740,11552,01.206,551
2023-03-09T10:35:11,42.805,6.029,CST-1368DR,4359,4743,11557,01.204,551
2023-03-09T10:38:12,42.805,6.029,CST-1368DR,4359,4746,11565,01.201,551
2023-03-09T10:41:14,42.805,6.029,CST-1368DR,4359,4743,11559,01.203,551
2023-03-09T10:44:15,42.805,6.029,CST-1368DR,4359,4738,11546,01.208,551
2023-03-09T10:47:17,42.805,6.029,CST-1368DR,4359,4749,11573,01.198,551
2023-03-09T10:50:19,42.805,6.029,CST-1368DR,4359,4743,11558,01.204,551
2023-03-09T10:53:20,42.805,6.029,CST-1368DR,4359,4744,11560,01.203,551
2023-03-09T10:56:22,42.805,6.029,CST-1368DR,4359,4746,11565,01.201,551
2023-03-09T10:59:23,42.805,6.029,CST-1368DR,4359,4749,11572,01.199,551
2023-03-09T11:02:25,42.805,6.029,CST-1368DR,4359,4732,11531,01.213,551
2023-03-09T11:05:26,42.805,6.029,CST-1368DR,4359,4746,11566,01.201,551
2023-03-09T11:08:28,42.805,6.029,CST-1368DR,4359,4753,11583,01.195,551
2023-03-09T11:11:30,42.805,6.029,CST-1368DR,4359,4753,11582,01.195,551
2023-03-09T11:14:31,42.805,6.029,CST-1368DR,4359,4750,11576,01.197,551
2023-03-09T11:17:33,42.805,6.029,CST-1368DR,4359,4749,11574,01.198,551
2023-03-09T11:20:34,42.805,6.029,CST-1368DR,4359,4747,11567,01.201,551
2023-03-09T11:23:36,42.805,6.029,CST-1368DR,4359,4749,11573,01.198,551
2023-03-09T11:26:37,42.805,6.029,CST-1368DR,4359,4751,11577,01.197,551
2023-03-09T11:29:39,42.805,6.029,CST-1368DR,4359,4753,11582,01.195,551
2023-03-09T11:32:41,42.805,6.029,CST-1368DR,4359,4747,11569,01.200,551
2023-03-09T11:35:42,42.805,6.029,CST-1368DR,4359,4748,11570,01.200,551
2023-03-09T11:38:44,42.805,6.029,CST-1368DR,4359,4749,11572,01.199,551
2023-03-09T11:41:45,42.805,6.029,CST-1368DR,4359,4753,11582,01.195,551
2023-03-09T11:44:47,42.805,6.029,CST-1368DR,4359,4754,11585,01.194,551
2023-03-09T11:47:49,42.805,6.029,CST-1368DR,4359,4749,11573,01.198,551
2023-03-09T11:50:50,42.805,6.029,CST-1368DR,4359,4748,11570,01.200,551
2023-03-09T11:53:52,42.805,6.029,CST-1368DR,4359,4751,11577,01.197,551
2023-03-09T11:56:53,42.805,6.029,CST-1368DR,4359,4749,11574,01.198,551
2023-03-09T11:59:55,42.805,6.029,CST-1368DR,4359,4749,11573,01.198,551
2023-03-09T12:02:56,42.805,6.029,CST-1368DR,4359,4749,11573,01.198,551
2023-03-09T12:05:58,42.805,6.029,CST-1368DR,4359,4748,11570,01.200,551
2023-03-09T12:09:00,42.805,6.029,CST-1368DR,4359,4752,11580,01.196,551
2023-03-09T12:12:01,42.805,6.029,CST-1368DR,4359,4752,11580,01.196,551
2023-03-09T12:15:03,42.805,6.029,CST-1368DR,4359,4752,11580,01.196,551
2023-03-09T12:18:04,42.805,6.029,CST-1368DR,4359,4748,11571,01.199,551
2023-03-09T12:21:06,42.805,6.029,CST-1368DR,4359,4746,11566,01.201,551
2023-03-09T12:24:07,42.805,6.029,CST-1368DR,4359,4750,11576,01.197,551
2023-03-09T12:27:09,42.805,6.029,CST-1368DR,4359,4749,11572,01.199,551
2023-03-09T12:30:11,42.805,6.029,CST-1368DR,4359,4746,11565,01.201,551
2023-03-09T12:33:12,42.805,6.029,CST-1368DR,4359,4750,11574,01.198,551
2023-03-09T12:36:14,42.805,6.029,CST-1368DR,4359,4750,11576,01.197,551
2023-03-09T12:39:15,42.805,6.029,CST-1368DR,4359,4750,11576,01.197,551
2023-03-09T12:42:17,42.805,6.029,CST-1368DR,4359,4750,11576,01.197,551
2023-03-09T12:45:19,42.805,6.029,CST-1368DR,4359,4745,11564,01.202,551
2023-03-09T12:48:20,42.805,6.029,CST-1368DR,4359,4747,11569,01.200,551
2023-03-09T12:51:22,42.805,6.029,CST-1368DR,4359,4748,11571,01.199,551
2023-03-09T12:54:23,42.805,6.029,CST-1368DR,4359,4739,11548,01.207,551
2023-03-09T12:57:25,42.805,6.029,CST-1368DR,4359,4742,11557,01.204,551
2023-03-09T13:00:26,42.805,6.029,CST-1368DR,4359,4749,11574,01.198,551
2023-03-09T13:03:28,42.805,6.029,CST-1368DR,4359,4750,11575,01.198,551
2023-03-09T13:06:30,42.805,6.029,CST-1368DR,4359,4747,11568,01.200,551
2023-03-09T13:09:31,42.805,6.029,CST-1368DR,4359,4749,11573,01.198,551
2023-03-09T13:12:33,42.805,6.029,CST-1368DR,4359,4750,11575,01.198,551
2023-03-09T13:15:34,42.805,6.029,CST-1368DR,4359,4750,11575,01.198,551
2023-03-09T13:18:36,42.805,6.029,CST-1368DR,4359,4745,11564,01.202,551
2023-03-09T13:21:37,42.805,6.029,CST-1368DR,4359,4746,11565,01.201,551
2023-03-09T13:24:39,42.805,6.029,CST-1368DR,4359,4747,11568,01.200,551
2023-03-09T13:27:41,42.805,6.029,CST-1368DR,4359,4747,11568,01.200,551
2023-03-09T13:30:42,42.805,6.029,CST-1368DR,4359,4751,11577,01.197,551
2023-03-09T13:33:44,42.805,6.029,CST-1368DR,4359,4751,11577,01.197,551
2023-03-09T13:36:45,42.805,6.029,CST-1368DR,4359,4750,11574,01.198,551
2023-03-09T13:39:47,42.805,6.029,CST-1368DR,4359,4751,11577,01.197,551
2023-03-09T13:42:48,42.805,6.029,CST-1368DR,4359,4753,11583,01.195,551
2023-03-09T13:45:50,42.805,6.029,CST-1368DR,4359,4749,11574,01.198,551
2023-03-09T13:48:52,42.805,6.029,CST-1368DR,4359,4752,11580,01.196,551
2023-03-09T13:51:53,42.805,6.029,CST-1368DR,4359,4750,11575,01.198,551
2023-03-09T13:54:55,42.805,6.029,CST-1368DR,4359,4750,11576,01.197,551
2023-03-09T13:57:56,42.805,6.029,CST-1368DR,4359,4751,11577,01.197,551
2023-03-09T14:00:58,42.805,6.029,CST-1368DR,4359,4753,11582,01.195,551
2023-03-09T14:04:00,42.805,6.029,CST-1368DR,4359,4754,11586,01.194,551
2023-03-09T14:07:01,42.805,6.029,CST-1368DR,4359,4748,11571,01.199,551
2023-03-09T14:10:03,42.805,6.029,CST-1368DR,4359,4749,11574,01.198,551
2023-03-09T14:13:04,42.805,6.029,CST-1368DR,4359,4750,11576,01.197,551
2023-03-09T14:16:06,42.805,6.029,CST-1368DR,4359,4752,11581,01.196,551
2023-03-09T14:19:07,42.805,6.029,CST-1368DR,4359,4754,11584,01.195,551
2023-03-09T14:22:09,42.805,6.029,CST-1368DR,4359,4749,11573,01.198,551
2023-03-09T14:25:11,42.805,6.029,CST-1368DR,4359,4739,11549,01.207,551
2023-03-09T14:28:12,42.805,6.029,CST-1368DR,4359,4752,11581,01.196,551
2023-03-09T14:31:14,42.805,6.029,CST-1368DR,4359,4752,11581,01.196,551
2023-03-09T14:34:15,42.805,6.029,CST-1368DR,4359,4751,11577,01.197,551
2023-03-09T14:37:17,42.805,6.029,CST-1368DR,4359,4746,11566,01.201,551
2023-03-09T14:40:18,42.805,6.029,CST-1368DR,4359,4747,11567,01.201,551
2023-03-09T14:43:20,42.805,6.029,CST-1368DR,4359,4748,11570,01.200,551
2023-03-09T14:46:22,42.805,6.029,CST-1368DR,4359,4747,11568,01.200,551
2023-03-09T14:49:23,42.805,6.029,CST-1368DR,4359,4753,11582,01.195,551
2023-03-09T14:52:25,42.805,6.029,CST-1368DR,4359,4753,11584,01.195,551
2023-03-09T14:55:26,42.805,6.029,CST-1368DR,4359,4743,11558,01.204,551
2023-03-09T14:58:28,42.805,6.029,CST-1368DR,4359,4743,11559,01.203,551
2023-03-09T15:01:30,42.805,6.029,CST-1368DR,4359,4742,11557,01.204,551
2023-03-09T15:04:31,42.805,6.029,CST-1368DR,4359,4747,11567,01.201,551
2023-03-09T15:07:33,42.805,6.029,CST-1368DR,4359,4744,11560,01.203,551
2023-03-09T15:10:34,42.805,6.029,CST-1368DR,4359,4743,11559,01.203,551
2023-03-09T15:13:36,42.805,6.029,CST-1368DR,4359,4747,11569,01.200,551
2023-03-09T15:16:37,42.805,6.029,CST-1368DR,4359,4747,11568,01.200,551
2023-03-09T15:19:39,42.805,6.029,CST-1368DR,4359,4747,11569,01.200,551
2023-03-09T15:22:41,42.805,6.029,CST-1368DR,4359,4747,11569,01.200,551
2023-03-09T15:25:42,42.805,6.029,CST-1368DR,4359,4745,11563,01.202,551
2023-03-09T15:28:44,42.805,6.029,CST-1368DR,4359,4746,11566,01.201,551
2023-03-09T15:31:45,42.805,6.029,CST-1368DR,4359,4748,11570,01.200,551
2023-03-09T15:34:47,42.805,6.029,CST-1368DR,4359,4747,11567,01.201,551
2023-03-09T15:37:48,42.805,6.029,CST-1368DR,4359,4741,11553,01.205,551
2023-03-09T15:40:50,42.805,6.029,CST-1368DR,4359,4743,11559,01.203,551
2023-03-09T15:43:52,42.805,6.029,CST-1368DR,4359,4748,11570,01.200,551
2023-03-09T15:46:53,42.805,6.029,CST-1368DR,4359,4747,11568,01.200,551
2023-03-09T15:49:55,42.805,6.029,CST-1368DR,4359,4743,11559,01.203,551
2023-03-09T15:52:56,42.805,6.029,CST-1368DR,4359,4746,11565,01.201,551
2023-03-09T15:55:58,42.805,6.029,CST-1368DR,4359,4747,11569,01.200,551
2023-03-09T15:59:00,42.805,6.029,CST-1368DR,4359,4745,11564,01.202,551
2023-03-09T16:02:01,42.805,6.029,CST-1368DR,4359,4743,11559,01.203,551
2023-03-09T16:05:03,42.805,6.029,CST-1368DR,4359,4743,11559,01.203,551
2023-03-09T16:08:04,42.805,6.029,CST-1368DR,4358,4743,11560,01.203,551
2023-03-09T16:11:06,42.805,6.029,CST-1368DR,4358,4746,11568,01.200,551
2023-03-09T16:14:07,42.805,6.029,CST-1368DR,4359,4746,11566,01.201,551
2023-03-09T16:17:09,42.805,6.029,CST-1368DR,4358,4751,11580,01.196,551
2023-03-09T16:20:11,42.805,6.029,CST-1368DR,4358,4743,11562,01.202,551
2023-03-09T16:23:12,42.805,6.029,CST-1368DR,4358,4743,11560,01.203,551
2023-03-09T16:26:14,42.805,6.029,CST-1368DR,4358,4743,11561,01.203,551
2023-03-09T16:29:15,42.805,6.029,CST-1368DR,4358,4746,11567,01.201,551
2023-03-09T16:32:17,42.805,6.029,CST-1368DR,4358,4742,11558,01.204,551
2023-03-09T16:35:18,42.805,6.029,CST-1368DR,4358,4741,11556,01.204,551
2023-03-09T16:38:20,42.805,6.029,CST-1368DR,4359,4742,11556,01.204,551